Regional Weather Roundup
Issued by NWS

Home | Current Version | Previous Version | Text Only | Print | Product List | Glossary On
Versions: 1 2 3 4 5 6 7 8 9 10 11 12 13 14 15 16 17 18 19 20 21 22 23 24 25 26 27 28 29 30 31 32 33 34 35 36 37 38 39 40 41 42 43 44 45 46 47 48 49 50
000
ASUS44 KMEG 220910
RWRTN
TENNESSEE HOURLY STATE WEATHER ROUNDUP
NATIONAL WEATHER SERVICE MEMPHIS TN
300 AM CST SUN JAN 22 2017

TNZ002-004-019-021-049-052-054-088>092-221000-
WEST TENNESSEE

CITY           SKY/WX    TMP DP  RH WIND       PRES   REMARKS
MEMPHIS INTL   RAIN      56  54  93 NW8       29.46R FOG
NWS MEMPHIS      N/A     56 N/A N/A MISG        N/A
JACKSON        CLOUDY    56  53  90 E5        29.43F
DYERSBURG      CLOUDY    57  50  77 SE8       29.42F
UNION CITY     CLEAR     57  55  94 CALM      29.43F
PARIS          CLEAR     54  48  82 CALM      29.46F
HUNTINGDON     PTCLDY    55  52  88 E5        29.44F
$$

TNZ008-025-027-028-033-062-065-066-221000-
NORTH MIDDLE TENNESSEE

CITY           SKY/WX    TMP DP  RH WIND       PRES   REMARKS
NASHVILLE      CLOUDY    53  49  86 NE3       29.50S
PORTLAND       CLEAR     54  50  87 SE5       29.51S
CLARKSVILLE    CLOUDY    52  48  86 E3        29.50S
SMYRNA         CLOUDY    51  50  96 E3        29.51S
GALLATIN       CLEAR     54  50  87 CALM      29.54S
CROSSVILLE     CLOUDY    49  48  97 SE5       29.57R
$$

TNZ061-075-076-078-094-096-097-221000-
SOUTH MIDDLE TENNESSEE

CITY           SKY/WX    TMP DP  RH WIND       PRES   REMARKS
TULLAHOMA      CLOUDY    54  54 100 SE7       29.51S
WINCHESTER     MOCLDY    55  54  94 SE12      29.49F
MCMINNVILLE    PTCLDY    55  55 100 SE6       29.52S
COLUMBIA       PTCLDY   N/A N/A N/A N5        29.47R
SHELBYVILLE    MOCLDY    57  55  94 SE7       29.50S
$$

TNZ017-018-042-046-047-221000-
NORTHEAST TENNESSEE

CITY           SKY/WX    TMP DP  RH WIND       PRES   REMARKS
TRI CITIES     CLOUDY    50  49  96 CALM      29.61F
ELIZABETHTON   MOCLDY    50  48  93 CALM      29.61F
$$

TNZ012-013-036-069-073-074-221000-
CENTRAL EAST TENNESSEE

CITY           SKY/WX    TMP DP  RH WIND       PRES   REMARKS
KNOXVILLE      CLOUDY    51  49  92 CALM      29.57S
OAK RIDGE      MOCLDY    51  49  92 CALM      29.59R
GATLINBURG     CLEAR     46  46 100 NE3       29.56F
MORRISTOWN     CLOUDY    52  52 100 NE3       29.58F
JACKSBORO      FOG       45  45 100 CALM      29.61F VSB 0
$$

TNZ083-085-099-221000-
SOUTHEAST TENNESSEE

CITY           SKY/WX    TMP DP  RH WIND       PRES   REMARKS
CHATTANOOGA    TSTM      57  54  89 SE6       29.55F FOG
$$

SKY/WX REPORTED AS FAIR MEANS FEW OR NO CLOUDS BELOW
12 THOUSAND FEET.




USA.gov is the U.S. government's official web portal to all federal, state and local government web resources and services.